| time (UTC) | temp C | wind direction | speed KPH | gust KPH | rain 1hr cm | rain 24hr cm | rain mn cm | humidity % | barometer mb |
| 20260507203100 | 10 | 0 | 0.0 | 3.2 | 0.00 | 0.23 | 0.23 | 40 | 1015.2 |
| 20260507201600 | 10 | 360 | 3.2 | 12.9 | 0.00 | 0.23 | 0.23 | 42 | 1015.0 |
| 20260507200108 | 10 | 360 | 3.2 | 9.7 | 0.00 | 0.23 | 0.23 | 44 | 1014.9 |
| 20260507194557 | 10 | 360 | 1.6 | 9.7 | 0.00 | 0.25 | 0.23 | 47 | 1014.8 |
| 20260507193056 | 11 | 360 | 3.2 | 8.0 | 0.00 | 0.25 | 0.23 | 49 | 1014.8 |
| 20260507191558 | 11 | 360 | 3.2 | 9.7 | 0.00 | 0.25 | 0.23 | 51 | 1014.6 |
| 20260507190057 | 11 | 360 | 1.6 | 8.0 | 0.00 | 0.25 | 0.23 | 53 | 1014.6 |
| 20260507184605 | 11 | 360 | 1.6 | 6.4 | 0.00 | 0.25 | 0.23 | 54 | 1014.7 |
| 20260507183055 | 11 | 360 | 1.6 | 8.0 | 0.00 | 0.25 | 0.23 | 53 | 1014.4 |
| 20260507181602 | 11 | 360 | 4.8 | 9.7 | 0.00 | 0.25 | 0.23 | 55 | 1014.4 |
| 20260507180057 | 12 | 360 | 0.0 | 4.8 | 0.00 | 0.25 | 0.23 | 55 | 1014.3 |
| 20260507174602 | 12 | 360 | 1.6 | 6.4 | 0.00 | 0.25 | 0.23 | 55 | 1014.3 |
| 20260507173056 | 12 | 360 | 3.2 | 12.9 | 0.00 | 0.25 | 0.23 | 58 | 1014.2 |
| 20260507171603 | 13 | 360 | 3.2 | 14.5 | 0.00 | 0.23 | 0.20 | 57 | 1014.2 |
| 20260507170059 | 13 | 360 | 3.2 | 9.7 | 0.00 | 0.23 | 0.20 | 57 | 1014.2 |
| 20260507164557 | 13 | 360 | 1.6 | 8.0 | 0.00 | 0.28 | 0.20 | 57 | 1014.2 |
| 20260507163059 | 13 | 360 | 0.0 | 6.4 | 0.00 | 0.28 | 0.20 | 56 | 1014.3 |
| 20260507161556 | 13 | 0 | 1.6 | 8.0 | 0.00 | 0.28 | 0.20 | 55 | 1014.3 |
| 20260507160057 | 13 | 360 | 1.6 | 6.4 | 0.00 | 0.28 | 0.20 | 54 | 1014.2 |
| 20260507154602 | 13 | 0 | 1.6 | 9.7 | 0.00 | 0.28 | 0.20 | 53 | 1014.3 |
| 20260507153101 | 13 | 360 | 0.0 | 8.0 | 0.00 | 0.28 | 0.20 | 51 | 1014.2 |
| 20260507151556 | 13 | 360 | 3.2 | 9.7 | 0.00 | 0.28 | 0.20 | 55 | 1014.2 |
| 20260507150058 | 13 | 360 | 1.6 | 9.7 | 0.00 | 0.28 | 0.20 | 58 | 1014.2 |
| 20260507144556 | 13 | 360 | 6.4 | 19.3 | 0.00 | 0.33 | 0.20 | 58 | 1014.3 |
| 20260507143055 | 13 | 360 | 3.2 | 9.7 | 0.00 | 0.33 | 0.20 | 58 | 1014.2 |
| 20260507141557 | 13 | 360 | 1.6 | 9.7 | 0.00 | 0.33 | 0.20 | 58 | 1014.2 |
| 20260507140103 | 13 | 360 | 4.8 | 16.1 | 0.00 | 0.33 | 0.20 | 57 | 1014.3 |
| 20260507134600 | 13 | 360 | 0.0 | 6.4 | 0.00 | 0.36 | 0.20 | 58 | 1014.5 |
| 20260507133107 | 13 | 360 | 3.2 | 14.5 | 0.00 | 0.36 | 0.20 | 58 | 1014.6 |
| 20260507131604 | 13 | 360 | 1.6 | 12.9 | 0.00 | 0.36 | 0.20 | 58 | 1014.7 |
| 20260507130109 | 13 | 360 | 4.8 | 14.5 | 0.00 | 0.36 | 0.20 | 58 | 1014.7 |
| 20260507124558 | 13 | 360 | 6.4 | 16.1 | 0.00 | 0.36 | 0.18 | 58 | 1014.6 |
| 20260507123057 | 15 | 360 | 3.2 | 14.5 | 0.00 | 0.36 | 0.18 | 57 | 1014.6 |
| 20260507121608 | 15 | 360 | 3.2 | 12.9 | 0.00 | 0.36 | 0.18 | 58 | 1014.6 |
| 20260507114613 | 14 | 360 | 0.0 | 6.4 | 0.00 | 0.38 | 0.18 | 58 | 1014.6 |
| 20260507113101 | 13 | 360 | 1.6 | 8.0 | 0.00 | 0.38 | 0.18 | 58 | 1014.6 |
| 20260507111606 | 12 | 360 | 1.6 | 8.0 | 0.00 | 0.38 | 0.18 | 57 | 1014.9 |
| 20260507110057 | 12 | 360 | 3.2 | 12.9 | 0.00 | 0.38 | 0.18 | 56 | 1015.0 |
| 20260507104556 | 12 | 360 | 4.8 | 14.5 | 0.00 | 0.46 | 0.18 | 56 | 1015.0 |
| 20260507103056 | 13 | 360 | 1.6 | 8.0 | 0.00 | 0.46 | 0.18 | 57 | 1015.1 |
| 20260507101604 | 13 | 360 | 4.8 | 9.7 | 0.03 | 0.46 | 0.18 | 55 | 1015.0 |
| 20260507100058 | 12 | 360 | 3.2 | 9.7 | 0.00 | 0.46 | 0.15 | 55 | 1015.1 |
| 20260507094557 | 12 | 360 | 3.2 | 8.0 | 0.00 | 0.61 | 0.15 | 54 | 1015.1 |
| 20260507093059 | 12 | 0 | 1.6 | 8.0 | 0.00 | 0.61 | 0.15 | 48 | 1015.1 |
| 20260507091559 | 11 | 0 | 1.6 | 3.2 | 0.00 | 0.58 | 0.13 | 41 | 1015.1 |
| 20260507090058 | 11 | 360 | 1.6 | 12.9 | 0.00 | 0.58 | 0.13 | 44 | 1015.1 |
| 20260507084557 | 11 | 0 | 1.6 | 12.9 | 0.00 | 0.74 | 0.13 | 40 | 1015.0 |
| 20260507083056 | 11 | 360 | 3.2 | 9.7 | 0.00 | 0.74 | 0.13 | 36 | 1015.0 |
| 20260507081602 | 10 | 360 | 1.6 | 8.0 | 0.00 | 0.74 | 0.13 | 34 | 1015.1 |
| 20260507080100 | 10 | 360 | 4.8 | 9.7 | 0.00 | 0.74 | 0.13 | 29 | 1014.9 |
| 20260507074608 | 10 | 360 | 0.0 | 4.8 | 0.00 | 0.74 | 0.10 | 25 | 1014.9 |
| 20260507073055 | 9 | 360 | 1.6 | 6.4 | 0.00 | 0.74 | 0.10 | 25 | 1014.9 |
| 20260507071556 | 9 | 0 | 0.0 | 3.2 | 0.00 | 0.74 | 0.10 | 25 | 1014.9 |
| 20260507070058 | 8 | 0 | 0.0 | 6.4 | 0.00 | 0.74 | 0.10 | 25 | 1014.7 |
| 20260507064559 | 8 | 0 | 4.8 | 9.7 | 0.00 | 0.71 | 0.08 | 25 | 1014.6 |
| 20260507063058 | 8 | 360 | 4.8 | 8.0 | 0.00 | 0.71 | 0.08 | 23 | 1014.5 |
| 20260507061606 | 8 | 360 | 4.8 | 9.7 | 0.00 | 0.71 | 0.08 | 23 | 1014.5 |
| 20260507060057 | 8 | 360 | 3.2 | 8.0 | 0.00 | 0.71 | 0.08 | 24 | 1014.4 |
| 20260507054638 | 7 | 360 | 3.2 | 8.0 | 0.00 | 0.71 | 0.08 | 23 | 1014.3 |
| 20260507053100 | 7 | 360 | 3.2 | 8.0 | 0.00 | 0.71 | 0.08 | 24 | 1014.3 |
| 20260507051556 | 7 | 360 | 1.6 | 6.4 | 0.00 | 0.71 | 0.08 | 23 | 1014.1 |
| 20260507050058 | 7 | 360 | 3.2 | 6.4 | 0.03 | 0.71 | 0.08 | 23 | 1013.9 |
| 20260507044601 | 7 | 0 | 0.0 | 8.0 | 0.00 | 0.69 | 0.08 | 24 | 1013.7 |
| 20260507043055 | 7 | 360 | 4.8 | 9.7 | 0.00 | 0.69 | 0.08 | 24 | 1013.6 |
| 20260507041602 | 7 | 360 | 3.2 | 8.0 | 0.00 | 0.69 | 0.08 | 25 | 1013.6 |
| 20260507040058 | 7 | 360 | 6.4 | 9.7 | 0.00 | 0.66 | 0.05 | 24 | 1013.5 |
| 20260507034600 | 7 | 360 | 6.4 | 8.0 | 0.00 | 0.66 | 0.05 | 23 | 1013.4 |
| 20260507033101 | 7 | 360 | 3.2 | 6.4 | 0.00 | 0.66 | 0.05 | 23 | 1013.5 |
| 20260507031605 | 7 | 0 | 0.0 | 9.7 | 0.00 | 0.66 | 0.05 | 23 | 1013.3 |
| 20260507030059 | 7 | 360 | 8.0 | 12.9 | 0.00 | 0.66 | 0.05 | 23 | 1013.3 |
| 20260507024555 | 7 | 360 | 4.8 | 9.7 | 0.00 | 0.66 | 0.05 | 23 | 1013.3 |
| 20260507023105 | 7 | 360 | 4.8 | 9.7 | 0.03 | 0.66 | 0.05 | 23 | 1013.3 |
| 20260507021555 | 7 | 360 | 3.2 | 6.4 | 0.00 | 0.64 | 0.03 | 22 | 1013.3 |
| 20260507020057 | 7 | 0 | 0.0 | 8.0 | 0.00 | 0.64 | 0.03 | 23 | 1013.3 |
| 20260507014604 | 7 | 360 | 4.8 | 12.9 | 0.00 | 0.64 | 0.03 | 22 | 1013.2 |
| 20260507013056 | 7 | 360 | 4.8 | 9.7 | 0.00 | 0.64 | 0.00 | 22 | 1013.2 |
| 20260507011555 | 7 | 360 | 4.8 | 9.7 | 0.00 | 0.64 | 0.00 | 22 | 1013.2 |
| 20260507010107 | 7 | 360 | 3.2 | 6.4 | 0.00 | 0.64 | 0.00 | 22 | 1013.3 |
| 20260507004557 | 7 | 360 | 3.2 | 8.0 | 0.00 | 0.64 | 0.00 | 22 | 1013.3 |
| 20260507003058 | 7 | 360 | 0.0 | 4.8 | 0.00 | 0.64 | 0.00 | 22 | 1013.2 |
| 20260507001605 | 7 | 360 | 6.4 | 9.7 | 0.00 | 0.64 | 0.00 | 22 | 1013.1 |
| 20260507000105 | 7 | 360 | 8.0 | 17.7 | 0.00 | 0.64 | 0.00 | 22 | 1013.1 |
| 20260506234603 | 7 | 360 | 9.7 | 16.1 | 0.00 | 0.64 | 0.00 | 22 | 1013.1 |
| 20260506233129 | 7 | 360 | 0.0 | 0.0 | 0.00 | 0.64 | 0.00 | 22 | 1013.2 |
| 20260506231605 | 7 | 0 | 0.0 | 0.0 | 0.00 | 0.64 | 0.00 | 22 | 1012.9 |
| 20260506230057 | 7 | 0 | 0.0 | 1.6 | 0.00 | 0.64 | 0.00 | 22 | 1013.2 |
| 20260506224556 | 7 | 0 | 0.0 | 8.0 | 0.00 | 0.64 | 0.00 | 22 | 1013.1 |
| 20260506223103 | 7 | 360 | 4.8 | 8.0 | 0.00 | 0.64 | 0.00 | 22 | 1013.2 |
| 20260506221559 | 7 | 360 | 4.8 | 9.7 | 0.00 | 0.64 | 0.00 | 22 | 1013.1 |
| 20260506220059 | 7 | 0 | 0.0 | 0.0 | 0.00 | 0.64 | 0.00 | 23 | 1013.0 |
| 20260506214557 | 7 | 0 | 0.0 | 6.4 | 0.00 | 0.64 | 0.64 | 24 | 1012.7 |
| 20260506213113 | 7 | 0 | 1.6 | 4.8 | 0.00 | 0.64 | 0.64 | 25 | 1012.8 |
| 20260506211558 | 7 | 360 | 1.6 | 6.4 | 0.00 | 0.64 | 0.64 | 25 | 1012.7 |
| 20260506210059 | 7 | 360 | 1.6 | 4.8 | 0.00 | 0.64 | 0.64 | 27 | 1012.5 |
| 20260506204558 | 7 | 360 | 3.2 | 6.4 | 0.00 | 0.64 | 0.64 | 28 | 1012.6 |